Preview of NWS' New Version of Forecast
This preview is not operational and should not be used for support decisions.

Regional Weather Roundup (RWR)

Issued by National Weather Service (NWS)

                            
000
ASUS45 KCYS 211310
RWRWY 

WYOMING REGIONAL WEATHER ROUNDUP
NATIONAL WEATHER SERVICE CHEYENNE WY
700 AM MDT SUN APR 21 2019

NOTE:  "FAIR" INDICATES FEW OR NO CLOUDS BELOW 12,000 FEET
WITH NO SIGNIFICANT WEATHER AND/OR OBSTRUCTIONS TO VISIBILITY.

WYZ001-211400-
YELLOWSTONE NATIONAL PARK
  
CITY           SKY/WX    TMP DP  RH WIND       PRES   REMARKS
LK YELLOWSTONE   N/A     33  32  96 CALM      29.95R                  
W YELLOWSTONE  NOT AVBL                                               

$$
WYZ002>013-054>058-071-098>099-211400-
NORTHERN WYOMING
  
CITY           SKY/WX    TMP DP  RH WIND       PRES   REMARKS
JACKSON        CLOUDY    37  34  89 CALM      29.90R                  
CODY           CLOUDY    42  39  89 NW15G22   29.96R                  
GREYBULL       CLOUDY    47  41  80 NW16      29.87R                  
WORLAND        CLOUDY    49  42  77 NW12      29.89R                  
SHERIDAN       LGT RAIN  46  44  93 N9        29.95R FOG              
BUFFALO        CLOUDY    44  42  93 N21G29    29.92R                  
GILLETTE       LGT RAIN  45  44  97 N14       29.88R                  
HULETT         CLOUDY    46  45  93 N5        29.88                   
NEWCASTLE      FAIR      46  39  76 SE5       29.83                   

$$
WYZ014>020-022>026-101>103-211400-
CENTRAL WYOMING
  
CITY           SKY/WX    TMP DP  RH WIND       PRES   REMARKS
BIG PINEY      CLOUDY    40  36  86 E7        29.90R                  
PINEDALE       DRIZZLE   37  36  93 CALM      29.92                   
DUBOIS         CLOUDY    37  32  81 CALM      29.89                   
LANDER         CLOUDY    46  39  76 N7        29.88R                  
RIVERTON       MOCLDY    44  39  82 N5        29.88R                  
CASPER         CLOUDY    46  45  96 N13       29.88R                  
DOUGLAS        CLOUDY    48  44  86 NW13      29.84R                  

$$
WYZ021-027>030-104>119-211400-
SOUTHERN WYOMING
  
CITY           SKY/WX    TMP DP  RH WIND       PRES   REMARKS
EVANSTON       MOCLDY    39  34  82 S5        29.89R                  
KEMMERER       FAIR      37  36  93 W3        29.90                   
ROCK SPRINGS   MOCLDY    40  34  79 SW7       29.89S                  
DIXON          FAIR      37  29  74 E12       29.92R WCI  29          
RAWLINS        FAIR      46  29  51 NW3       29.88R                  
SARATOGA       FAIR      37  28  70 CALM      29.90R                  
LARAMIE        CLOUDY    45  31  58 S8        29.88R                  
CHEYENNE       LGT RAIN  56  32  40 SW6       29.86R                  
TORRINGTON     MOCLDY    51  46  83 N3        29.78R                  
PINE BLUFFS    CLOUDY    57  32  38 W16       29.80R                  

$$